#timestamp,LO_Frequency,Hit,StdDev 
1457694015.7,286046999.1,N
1457694035.5,286046998.5,N
1457694055.3,286047000.6,N
1457694075.2,286046999.6,N
1457694095.9,286046998.5,N
1457694115.7,286047001.3,N
1457694135.6,286047003.2,N
1457694155.4,286047000.2,N
1457694175.2,286047001.7,N
1457694195.1,286047002.9,N
1457694196.0,286047002.9,N
1457694215.8,286047005.4,N
1457694235.6,286047006.0,N
1457694255.5,286047004.7,N
1457694275.3,286047005.1,N
1457694295.1,286047005.1,N
1457694315.8,286047005.6,N
1457694335.7,286047002.8,N
1457694355.5,286046998.2,N
1457694375.3,286046998.4,N
1457694395.2,286047001.5,N
1457694415.9,286047005.9,N
1457694435.7,286047007.2,N
1457694455.6,286047003.0,N
1457694475.4,286047000.7,N
1457694495.2,286046997.0,N
1457694515.1,286046995.2,N
1457694516.0,286046995.2,N
1457694535.8,286046993.8,N
1457694555.6,286046994.1,N
1457694575.4,286046993.9,N
1457694595.3,286046991.8,N
1457694615.1,286046999.6,N
1457694635.8,286046999.4,N
1457694655.7,286046999.6,N
1457694675.5,286046996.7,N
1457694695.3,286046997.0,N
1457694715.2,286046998.4,N
1457694735.9,286046996.9,N
1457694755.7,286046997.8,N
1457694775.6,286046994.0,N
1457694795.4,286046991.9,N
1457694815.2,286046990.1,N
1457694835.1,286046991.3,N
1457694836.0,286046991.3,N
1457694855.8,286046990.3,N
1457694875.6,286046993.0,N
1457694895.5,286046994.8,N
1457694915.3,286046990.9,N
1457694935.1,286046990.6,N
1457694955.8,286046990.2,N
1457694975.7,286046993.5,N
1457694995.5,286046993.3,N
1457695015.3,286046993.6,N
1457695035.2,286046993.4,N
1457695055.9,286046995.4,N
1457695075.7,286046998.9,N
1457695095.6,286046995.5,N
1457695115.4,286046994.1,N
1457695135.2,286046995.2,N
1457695155.1,286046999.0,N
1457695156.0,286046999.0,N
1457695175.8,286046998.6,N
1457695195.6,286047003.7,N
1457695215.5,286047005.7,N
1457695235.3,286047003.4,N
1457695255.1,286047003.0,N
1457695275.8,286047007.6,N
1457695295.7,286047005.1,N
1457695315.5,286047006.8,N
1457695335.3,286047006.6,N
1457695355.2,286047009.6,N
1457695375.0,286047009.1,N
1457695375.9,286047009.1,N
1457695395.7,286047005.7,N
1457695415.6,286047001.3,N
1457695435.4,286047002.1,N
1457695455.2,286047000.5,N
1457695475.1,286047004.1,N
1457695476.0,286047004.1,N
1457695495.8,286047005.7,N
1457695515.6,286047003.5,N
1457695535.5,286046998.7,N
1457695555.3,286046998.8,N
1457695575.1,286047001.6,N
1457695595.9,286047000.6,N
1457695615.7,286047000.1,N
1457695635.5,286047000.5,N
1457695655.4,286047004.0,N
1457695675.2,286047004.7,N
1457695695.0,286047007.6,N
1457695695.9,286047007.6,N
1457695715.8,286047006.8,N
1457695735.6,286047007.3,N
1457695755.4,286047004.9,N
1457695775.3,286047010.5,Y
1457695795.1,286047005.1,P
1457695796.0,286047005.1,P
1457695815.8,286047001.7,P
1457695835.6,286047002.6,N
1457695855.5,286047001.6,N
1457695875.3,286046999.6,N
1457695895.1,286046997.6,N
1457695915.9,286046996.0,N
1457695935.7,286046995.4,N
1457695955.5,286046995.4,N
1457695975.4,286046995.8,N
1457695995.2,286046996.1,N
1457696015.0,286046992.5,N
1457696015.9,286046992.5,N
1457696035.8,286046990.9,N
1457696055.6,286046990.7,N
1457696075.4,286046991.3,N
1457696095.3,286046991.4,N
1457696115.1,286046989.7,N
1457696116.0,286046989.7,N
1457696135.8,286046991.6,N
1457696155.7,286046987.1,N
1457696175.5,286046987.4,N
1457696195.3,286046987.7,N
1457696215.1,286046991.5,N
1457696235.9,286046990.0,N
1457696255.7,286046985.4,N
1457696275.5,286046987.2,N
1457696295.4,286046987.2,N
1457696315.2,286046987.2,N
1457696335.0,286046987.6,N
1457696335.9,286046987.6,N
1457696355.8,286046987.5,N
1457696375.6,286046989.2,N
1457696395.4,286046990.4,N
1457696415.3,286046988.5,Y
1457696435.1,286046999.9,P
1457696436.0,286046999.9,N
1457696455.8,286047001.6,N
1457696475.7,286047003.8,N
1457696495.5,286047004.2,N
1457696515.3,286047004.2,N
1457696535.2,286047001.7,N
1457696555.9,286047003.8,N
1457696575.7,286047003.0,N
1457696595.5,286047005.0,N
1457696615.4,286047005.0,N
1457696635.2,286047002.9,N
1457696655.0,286047008.1,N
1457696655.9,286047008.1,N
1457696675.8,286047009.4,N
1457696695.6,286047011.8,N
1457696715.4,286047009.4,N
1457696735.3,286047010.5,N
1457696755.1,286047006.1,N
1457696756.0,286047006.1,N
1457696775.8,286047008.4,N
1457696795.7,286047008.3,N
1457696815.5,286047011.5,N
1457696835.3,286047011.1,N
1457696855.2,286047014.0,Y
1457696875.9,286047010.3,P
1457696895.7,286047008.8,P
1457696915.6,286047007.8,P
1457696935.4,286047009.1,Y
1457696955.2,286047000.9,P
1457696975.1,286047000.7,N
1457696976.0,286047000.7,N
1457696995.8,286047000.7,N
1457697015.6,286047000.3,N
1457697035.5,286046996.7,N
1457697055.3,286046997.3,N
1457697075.1,286046997.4,N
1457697095.9,286046997.6,N
1457697115.7,286046995.1,N
1457697135.5,286046994.6,N
1457697155.3,286046993.0,N
1457697175.2,286046994.1,N
1457697195.0,286046996.0,N
1457697195.9,286046996.0,N
1457697215.7,286046993.3,N
1457697235.6,286046990.2,N
1457697255.4,286046989.1,N
1457697275.2,286046991.2,N
1457697295.1,286046989.4,N
1457697296.0,286046989.4,N
1457697315.8,286046989.4,N
1457697335.6,286046988.8,N
1457697355.5,286046986.4,N
1457697375.3,286046985.5,N
1457697395.1,286046986.1,N
1457697415.8,286046986.2,N
1457697435.7,286046986.6,N
1457697455.5,286046983.8,N
1457697475.3,286046980.5,Y
1457697495.2,286046988.4,P
1457697515.0,286046989.8,P
1457697515.9,286046989.8,P
1457697535.8,286046989.8,Y
1457697555.6,286046998.8,P
1457697575.4,286046996.8,N
1457697595.2,286046997.1,N
